User: anonymous   Login
Location: Unspecified
(0.0000°N, 0.0000°E)
Time: 22:37:21
(UTC+00:00)
Language:

ADEOS - Orbit

View from above orbital plane
View from above orbital plane
View from above satellite
View from above satellite

Ground track
Ground track

The orbit data is extracted from the following two-line orbital elements,

1 24277U 96046A   18290.90741391 +.00000004 +00000-0 +19290-4 0  9990
2 24277 098.7865 248.0613 0001446 031.0164 329.1103 14.29424917155677
Epoch (UTC): 17 October 2018 21:46:40
Eccentricity: 0.0001446
inclination: 98.7865°
perigee height: 792 km
apogee height: 794 km
right ascension of ascending node: 248.0613°
argument of perigee: 31.0164°
revolutions per day: 14.29424917
mean anomaly at epoch: 329.1103°
orbit number at epoch: 15567

The dashed part of the orbit path shows where the satellite is in the earth's shadow,  

DLR